Regional Weather Roundup
Issued by NWS

Home | Current Version | Previous Version | Graphics & Text | Print | Product List | Glossary On
Versions: 1 2 3 4 5 6 7 8 9 10 11 12 13 14 15 16 17 18 19 20 21 22 23 24 25 26 27 28 29 30 31 32 33 34 35 36 37 38 39 40 41 42 43 44 45 46 47 48 49 50
795
ASUS43 KLOT 060508
RWRIL

ILLINOIS REGIONAL WEATHER ROUNDUP
NATIONAL WEATHER SERVICE CHICAGO/ROMEOVILLE IL
1100 PM CST FRI FEB 05 2016

NOTE: "FAIR" INDICATES FEW OR NO CLOUDS BELOW 12,000 FEET WITH NO
SIGNIFICANT WEATHER AND/OR OBSTRUCTIONS TO VISIBILITY.

* THESE STATIONS ARE NOT UNDER NWS QUALITY CONTROL. THEY ALSO MAY NOT
  REPORT WEATHER SUCH AS PRECIPITATION OR FOG.

ILZ001-002-007-009-015-016-024-060600-
NORTHWEST ILLINOIS

CITY           SKY/WX    TMP DP  RH WIND       PRES   REMARKS
MOLINE         CLOUDY    29  22  75 S5        30.31F WCI  24
STERLING*      CLOUDY    28  21  74 CALM      30.29S
SAVANNA*       CLOUDY    29  24  81 S3        30.31S
$$

ILZ003-004-008-010-011-017-018-060600-
NORTH CENTRAL ILLINOIS

CITY           SKY/WX    TMP DP  RH WIND       PRES   REMARKS
ROCKFORD       MOCLDY    28  22  78 S3        30.32F
FREEPORT*      CLOUDY    27  23  83 S6        30.31F WCI  21
ROCHELLE*      MOCLDY    27  24  91 S3        30.32S
DE KALB*       CLEAR     26  22  88 SW5       30.31F WCI  20
PERU*          CLEAR     26  25  96 S5        30.33F WCI  20
$$

ILZ005-006-012>014-019>023-060600-
NORTHEAST ILLINOIS

CITY           SKY/WX    TMP DP  RH WIND       PRES   REMARKS
CHICAGO-OHARE  PTCLDY    27  21  78 SW5       30.31S WCI  22
CHICAGO-MIDWAY PTCLDY    28  20  71 SW7       30.32F WCI  21
AURORA         MOCLDY    26  22  84 S3        30.32F
LANSING*       CLEAR     25  22  88 SW6       30.33S WCI  18
JOLIET*        PTCLDY    22  21  93 CALM      30.33F FOG
WAUKEGAN       CLOUDY    27  21  78 CALM      30.29F
DUPAGE AIRPORT CLEAR     24  19  81 SW6       30.31S WCI  17
KANKAKEE*      CLEAR     25  22  91 SW3       30.34F
WHEELING       PTCLDY    27  21  78 SW5       30.32S WCI  22
MORRIS*        CLOUDY    24  21  88 CALM      30.31S
ROMEOVILLE*    CLEAR     25  21  86 SW5       30.32S WCI  19
NORTHERLY ISL    N/A     29  21  72 SW5         N/A  WCI  24
$$

LMZ740>746-060600-
SOUTHERN LAKE MICHIGAN

STATION/POSITION SKY/WX   TEMP    WIND        PRES    VSBY  WAVE
                          AIR SEA DIR/SP/G                  HT/PER
                          (F)     (DEG/KT/KT) (MB)    (MI)  (FT/S)
HARRISON CRIB              31     270/  8/  9   N/A
BURNHAM HARBOR             29     180/  7/  7   N/A
CALUMET HARBOR             28     220/  3/  5 1026.3F
BURNS HARBOR               29     210/  8/ 10 1027.4F
MICHIGAN CITY              28     170/  7/  8   N/A
$$

ILZ025>027-034>036-040-047-049-050-058-095>099-060600-
WEST-CENTRAL ILLINOIS

CITY           SKY/WX    TMP DP  RH WIND       PRES   REMARKS
QUINCY         CLOUDY    29  22  75 SE6       30.31S WCI  23
GALESBURG*     MOCLDY    26  23  86 CALM      30.31F
MACOMB*        CLOUDY    28  25  89 S5        30.34S WCI  22
JACKSONVILLE*  CLEAR     29  23  81 SE3       30.33S
PITTSFIELD*    CLOUDY    28  22  78 SE3       30.33S
$$

ILZ028>032-037-038-041>044-048-051>054-059>061-060600-
CENTRAL ILLINOIS

CITY           SKY/WX    TMP DP  RH WIND       PRES   REMARKS
PONTIAC        MOCLDY    25  24  96 S3        30.34F
BLOOMINGTON    CLEAR     24  23  96 S5        30.33F WCI  18
DECATUR        CLEAR     26  22  84 SE3       30.34F
PEORIA         CLOUDY    26  20  77 CALM      30.33F
LACON*         MOCLDY    25  21  85 SE5       30.32F WCI  19
LINCOLN*       PTCLDY    27  25  95 SE3       30.33F
SPRINGFIELD    CLEAR     27  22  81 SE6       30.33F WCI  20
TAYLORVILLE    CLEAR     27  23  86 SE3       30.34F
$$

ILZ033-039-045-046-055>057-062-063-060600-
EAST-CENTRAL ILLINOIS

CITY           SKY/WX    TMP DP  RH WIND       PRES   REMARKS
CHAMPAIGN      CLEAR     23  21  92 S5        30.34F WCI  17
RANTOUL*       CLEAR     27  26  94 CALM      30.34F
MATTOON        CLOUDY    25  21  85 S3        30.34F
PARIS*         CLOUDY    24  23  96 CALM      30.36S
$$

ILZ079-100>102-060600-
SOUTHWEST ILLINOIS

CITY           SKY/WX    TMP DP  RH WIND       PRES   REMARKS
ALTON          CLEAR     26  20  80 E3        30.34S
BELLEVILLE     CLEAR     25  20  80 S1        30.33F
CAHOKIA*       CLEAR     28  19  69 S3        30.34F
SPARTA*        CLEAR     30  22  72 CALM      30.35S
$$

ILZ064>066-069>071-074>076-080>082-084>086-088>090-092>094-060600-
SOUTH-CENTRAL ILLINOIS

CITY           SKY/WX    TMP DP  RH WIND       PRES   REMARKS
CARBONDALE     CLOUDY    29  21  72 E5        30.35F WCI  24
CAIRO*         CLEAR     28  28  98 CALM      30.36S
EFFINGHAM*     CLOUDY    26  26  99 CALM      30.37F
MARION         CLOUDY    32  23  69 CALM      30.36F
MT. VERNON     CLEAR     25  16  68 CALM      30.36S
CENTRALIA*     CLEAR     27  25  93 SE3       30.34F
SALEM*         CLEAR     30  23  74 E3        30.35F
METROPOLIS*    CLEAR     28  26  93 CALM      30.37S
$$

ILZ067-068-072-073-078-083-087-091-060600-
SOUTHEAST ILLINOIS

CITY           SKY/WX    TMP DP  RH WIND       PRES   REMARKS
LAWRENCEVILLE  CLEAR     24  21  88 E3        30.38F
FLORA*         CLEAR     27  23  84 E3        30.37S
FAIRFIELD*     CLEAR     29  22  75 CALM      30.36S
HARRISBURG*    CLOUDY    29  26  89 CALM      30.37F
ROBINSON*      CLOUDY    22  20  93 CALM      30.38F
CARMI*         PTCLDY    29  27  90 CALM      30.37F
$$

ABBREVIATIONS USED IN REMARKS
   TC - TEMPERATURE IN CELSIUS
  WCI - WIND CHILL INDEX
   HX - HEAT INDEX
  VSB - VISIBILITY
$$





USA.gov is the U.S. government's official web portal to all federal, state and local government web resources and services.